Skip Page Navigation
NASA JPL Caltech
NASA Logo - Jet Propulsion Laboratory + View the NASA Portal
+ Center for Near-Earth Object Studies
JPL Home Earth Solar System Stars & Galaxies Technology
JPL Solar System Dynamics
BODIES ORBITS EPHEMERIDES TOOLS PHYSICAL DATA DISCOVERY FAQ SITE MAP
IMPORTANT: The SSD Announcement email list is now available. Major changes are coming in the near future, including possible hostname and/or URL changes. To be notified of such changes, subscribe to this email list.

Please visit this page for more details.


JPL Small-Body Database Browser
Search: [ help ]  
295565 Hannover (2008 SL83)
Classification: Main-belt Asteroid          SPK-ID: 2295565
Ephemeris | Orbit Diagram | Orbital Elements | Mission Design | Physical Parameters | Discovery Circumstances | Close-Approach Data ]

[ show orbit diagram ]
Orbital Elements at Epoch 2458600.5 (2019-Apr-27.0) TDB
Reference: JPL 10 (heliocentric ecliptic J2000)
 Element Value Uncertainty (1-sigma)   Units 
e .15135506000342 6.504e-08  
a 2.580658251826946 2.6536e-08 au
q 2.190062567273357 1.7722e-07 au
i 7.200322939198393 7.0383e-06 deg
node 354.6377665990543 3.7726e-05 deg
peri 9.326855798645372 4.2045e-05 deg
M 204.4403330360769 2.1416e-05 deg
tp 2459254.817709689141
(2021-Feb-09.31770969)
9.6557e-05 TDB
period 1514.238106094171
4.15
2.3356e-05
6.395e-08
d
yr
n .2377433235573399 3.667e-09 deg/d
Q 2.971253936380534 3.0553e-08 au
  Orbit Determination Parameters
   # obs. used (total)      228  
   data-arc span      6737 days (18.44 yr)  
   first obs. used      2000-11-19  
   last obs. used      2019-05-01  
   planetary ephem.      DE431  
   SB-pert. ephem.      SB431-N16  
   condition code      0  
   norm. resid. RMS      .57921  
   source      ORB  
   producer      Otto Matic  
   solution date      2019-Jul-14 11:11:48  

Additional Information
 Earth MOID = 1.18709 au 
 Jupiter MOID = 2.48144 au 
 T_jup = 3.398 
[ show covariance matrix ]

Ephemeris | Orbit Diagram | Orbital Elements | Mission Design | Physical Parameters | Discovery Circumstances | Close-Approach Data ]

Physical Parameter Table
Parameter Symbol Value Units Sigma Reference Notes
absolute magnitude H 16.4   n/a MPO437321  

295565 Hannover           Discovered 2008 Sept. 27 by S. Karge and E. Schwab at Taunus.
Hannover, the capital city of the German federal state of Niedersachsen, is the birthplace of the astronomers Caroline Herschel and her brother Friedrich Wilhelm, the discoverer of Planet Uranus. The Volkssternwarte Geschwister Herschel Hannover is heavily involved in astronomical public education.
NOTE: some special characters may not display properly (any characters within {} are an attempt to place the proper accent above a character)
Reference: 20130127/MPCPages.arcLast Updated: 2013-01-31

[ show close-approach data ]
Alternate Designations
 2008 SL83 = 2006 BH155 
Ephemeris | Orbit Diagram | Orbital Elements | Mission Design | Physical Parameters | Discovery Circumstances | Close-Approach Data ]
ABOUT SSD CREDITS/AWARDS PRIVACY/COPYRIGHT GLOSSARY LINKS
FirstGov
(server date/time)  
NASA Home Page
Site Manager:   Ryan S. Park
Webmaster  Alan B. Chamberlin